FW4629 Weather Reports


time (UTC)temp
F
wind
direction
speed
knots
gust
knots
rain 1hr
in
rain 24hr
in
rain mn
in
humidity
%
barometer
mb
20260506192817 63 360 5.2 12.2 0.00 0.79 0.16 61 1008.3
20260506192319 63 360 4.3 10.4 0.00 0.79 0.16 62 1008.3
20260506191822 63 360 2.6 10.4 0.00 0.79 0.16 62 1008.3
20260506191506 62 5 3.5 10.4 0.00 0.16 0.16 62 1007.9
20260506191310 63 360 6.1 10.4 0.00 0.79 0.16 62 1008.5
20260506190813 63 68 2.6 9.6 0.00 0.79 0.16 62 1008.6
20260506190318 63 360 3.5 9.6 0.00 0.79 0.16 62 1008.4
20260506190019 62 360 2.6 9.6 0.00 0.16 0.16 63 1008.1
20260506185828 63 360 2.6 9.6 0.00 0.79 0.16 63 1008.6
20260506185313 63 360 4.3 9.6 0.00 0.79 0.16 63 1008.7
20260506184816 62 360 2.6 12.2 0.00 0.79 0.16 63 1008.6
20260506184540 62 360 3.5 13.9 0.00 0.16 0.16 63 1008.2
20260506184319 62 360 6.1 13.9 0.00 0.79 0.16 63 1008.6
20260506183830 62 233 3.5 12.2 0.00 0.79 0.16 63 1008.6
20260506183315 62 360 3.5 10.4 0.00 0.79 0.16 63 1008.8
20260506183048 62 360 2.6 12.2 0.00 0.16 0.16 63 1008.3
20260506182819 62 217 5.2 19.1 0.00 0.79 0.16 63 1008.7
20260506182330 62 360 6.1 19.1 0.00 0.79 0.16 63 1008.7
20260506181813 62 360 6.1 16.5 0.00 0.79 0.16 64 1008.9
20260506181604 61 360 6.1 16.5 0.00 0.16 0.16 64 1008.4
20260506181316 62 360 7.8 15.6 0.00 0.79 0.16 64 1008.8
20260506180819 62 360 5.2 14.8 0.00 0.79 0.16 64 1008.9
20260506180330 62 360 7.0 17.4 0.04 0.79 0.16 64 1009.0
20260506175813 62 360 7.0 17.4 0.04 0.79 0.16 64 1009.0
20260506175344 61 360 7.0 16.5 0.04 0.79 0.16 64 1008.9
20260506174555 61 360 6.1 17.4 0.01 0.16 0.16 64 1008.5
20260506174310 62 244 6.1 15.6 0.04 0.79 0.16 64 1009.0
20260506173816 62 360 7.0 15.6 0.04 0.79 0.16 64 1009.0
20260506173326 61 360 5.2 15.6 0.04 0.79 0.16 64 1009.0
20260506173008 61 360 6.1 15.6 0.01 0.16 0.16 65 1008.5
20260506172810 61 360 7.8 15.6 0.04 0.79 0.16 65 1009.0
20260506172315 61 360 5.2 11.3 0.04 0.79 0.16 65 1009.0
20260506171819 61 360 5.2 10.4 0.04 0.79 0.16 65 1009.1
20260506171514 61 360 4.3 16.5 0.01 0.16 0.16 65 1008.5
20260506171313 61 360 4.3 16.5 0.04 0.79 0.16 65 1009.0
20260506170818 61 231 7.0 16.5 0.08 0.79 0.16 65 1009.1
20260506170345 61 360 6.1 13.0 0.08 0.75 0.15 65 1009.3
20260506170003 61 360 6.1 13.0 0.02 0.15 0.15 65 1008.7
20260506165811 61 360 5.2 13.0 0.12 0.75 0.15 65 1009.3
20260506165315 61 245 5.2 13.0 0.16 0.75 0.15 65 1009.2
20260506164829 61 360 7.8 13.0 0.16 0.75 0.15 65 1009.2
20260506164515 61 217 6.1 12.2 0.04 0.15 0.15 65 1008.7
20260506164330 61 248 7.0 15.6 0.20 0.75 0.15 65 1009.0
20260506163813 62 240 6.1 15.6 0.24 0.75 0.15 65 1009.1
20260506163324 62 360 6.1 11.3 0.31 0.75 0.15 65 1009.1
20260506163011 61 257 6.1 12.2 0.07 0.15 0.15 65 1008.7
20260506162810 62 360 6.1 12.2 0.39 0.75 0.15 65 1009.2
20260506162312 62 360 4.3 11.3 0.39 0.75 0.15 65 1009.3
20260506161845 61 360 5.2 13.9 0.43 0.75 0.15 65 1009.2
20260506161642 61 360 5.2 13.9 0.09 0.15 0.15 65 1008.6
20260506161327 61 360 5.2 13.9 0.47 0.75 0.15 65 1009.2
20260506160837 61 360 5.2 9.6 0.47 0.71 0.14 64 1009.5
20260506160319 61 360 4.3 9.6 0.47 0.67 0.13 64 1009.7
20260506160045 61 360 3.5 8.7 0.10 0.13 0.13 64 1009.2
20260506155822 61 360 4.3 8.7 0.47 0.63 0.13 64 1009.9
20260506155333 61 360 3.5 7.0 0.47 0.59 0.12 64 1010.1
20260506154816 61 360 3.5 7.0 0.47 0.59 0.12 64 1010.4
20260506154534 61 360 3.5 8.7 0.09 0.11 0.11 63 1009.9
20260506154320 61 360 3.5 10.4 0.47 0.55 0.11 63 1010.4
20260506153829 61 360 4.3 11.3 0.43 0.51 0.10 63 1010.5
20260506153312 61 360 5.2 11.3 0.35 0.43 0.09 63 1010.4
20260506153048 61 360 4.3 11.3 0.07 0.08 0.08 63 1009.9
20260506152814 61 360 4.3 12.2 0.31 0.35 0.07 63 1010.5
20260506152346 61 360 5.2 12.2 0.31 0.35 0.07 63 1010.4
20260506151809 62 360 4.3 9.6 0.31 0.31 0.06 62 1010.2
20260506151538 61 360 5.2 10.4 0.06 0.06 0.06 62 1009.5
20260506151313 62 360 5.2 10.4 0.28 0.28 0.06 63 1010.1
20260506150824 62 360 3.5 12.2 0.24 0.24 0.05 62 1010.1
20260506150354 62 360 3.5 10.4 0.20 0.20 0.04 62 1010.0
20260506150020 62 360 3.5 10.4 0.03 0.03 0.03 62 1009.4
20260506145817 62 360 3.5 11.3 0.16 0.16 0.03 62 1010.0
20260506145322 62 360 5.2 14.8 0.12 0.12 0.02 62 1010.1
20260506144852 63 360 5.2 14.8 0.12 0.12 0.02 61 1010.2
20260506144511 62 360 5.2 12.2 0.02 0.02 0.02 62 1009.8
20260506144314 63 48 6.1 12.2 0.08 0.08 0.02 62 1010.3
20260506143838 63 360 5.2 11.3 0.08 0.08 0.02 61 1010.3
20260506143328 63 211 3.5 13.0 0.08 0.08 0.02 61 1010.2
20260506143006 63 360 5.2 13.0 0.01 0.01 0.01 60 1009.6
20260506142813 63 223 7.8 13.0 0.04 0.04 0.01 60 1010.1
20260506142315 64 360 2.6 13.0 0.04 0.04 0.01 60 1010.2
20260506141819 64 360 6.1 14.8 0.00 0.00 0.00 58 1010.2
20260506141506 64 360 7.8 14.8 0.00 0.00 0.00 58 1009.8
20260506141329 64 360 7.0 14.8 0.00 0.00 0.00 58 1010.3
20260506140813 65 360 5.2 14.8 0.00 0.00 0.00 57 1010.3
20260506140319 65 360 8.7 14.8 0.00 0.00 0.00 56 1010.2
20260506140020 65 207 4.3 11.3 0.00 0.00 0.00 56 1009.7
20260506135828 65 360 2.6 16.5 0.00 0.00 0.00 56 1010.1
20260506135312 65 360 7.8 16.5 0.00 0.00 0.00 55 1010.0
20260506134817 66 360 6.1 16.5 0.00 0.00 0.00 55 1010.1
20260506134535 65 360 5.2 13.9 0.00 0.00 0.00 55 1009.4
20260506134347 66 360 7.0 13.9 0.00 0.00 0.00 55 1010.1
20260506133811 66 360 4.3 13.9 0.00 0.00 0.00 55 1010.0
20260506133310 66 224 6.1 13.9 0.00 0.00 0.00 55 1010.0
20260506133024 65 360 6.1 16.5 0.00 0.00 0.00 55 1009.4
20260506132820 66 248 7.0 16.5 0.00 0.00 0.00 55 1010.1
20260506132325 66 360 5.2 13.0 0.00 0.00 0.00 55 1010.1
20260506131828 66 213 4.3 12.2 0.00 0.00 0.00 55 1010.0
20260506131531 65 360 6.1 12.2 0.00 0.00 0.00 55 1009.6
20260506131337 66 360 7.0 12.2 0.00 0.00 0.00 55 1010.2
20260506130819 66 360 4.3 18.2 0.00 0.00 0.00 55 1010.2
20260506130329 66 360 6.1 18.2 0.00 0.00 0.00 55 1010.3
20260506130016 65 249 8.7 18.2 0.00 0.00 0.00 55 1009.8
20260506125834 66 360 5.2 13.9 0.00 0.00 0.00 55 1010.3
20260506125316 66 175 7.0 13.9 0.00 0.00 0.00 55 1010.5
20260506124847 66 360 6.1 16.5 0.00 0.00 0.00 55 1010.3
20260506124557 65 231 7.0 18.2 0.00 0.00 0.00 55 1009.9
20260506124309 66 360 5.2 18.2 0.00 0.00 0.00 55 1010.6
20260506123814 66 360 7.8 18.2 0.00 0.00 0.00 54 1010.4
20260506123326 66 260 7.8 14.8 0.00 0.00 0.00 55 1010.2
20260506123001 65 360 5.2 16.5 0.00 0.00 0.00 55 1009.6
20260506122827 66 360 5.2 16.5 0.00 0.00 0.00 55 1010.1
20260506122312 66 360 7.8 16.5 0.00 0.00 0.00 55 1010.3
20260506121817 66 360 5.2 13.9 0.00 0.00 0.00 55 1010.3
20260506121508 65 360 6.1 13.0 0.00 0.00 0.00 55 1009.6
20260506121327 66 216 7.0 13.0 0.00 0.00 0.00 55 1010.2
20260506120810 65 360 5.2 13.0 0.00 0.00 0.00 55 1010.1
20260506120316 65 360 6.1 13.0 0.00 0.00 0.00 55 1010.1
20260506120019 65 360 6.1 15.6 0.00 0.00 0.00 56 1009.4
20260506115825 65 360 6.1 15.6 0.00 0.00 0.00 56 1010.0
20260506115330 65 360 7.8 15.6 0.00 0.00 0.00 56 1009.9
20260506114815 65 360 7.0 13.9 0.00 0.00 0.00 56 1010.1
20260506114516 65 360 4.3 12.2 0.00 0.00 0.00 56 1009.6
20260506114326 65 360 4.3 11.3 0.00 0.00 0.00 56 1010.0
20260506113810 65 360 5.2 13.0 0.00 0.00 0.00 56 1009.9
20260506113315 65 360 7.8 13.0 0.00 0.00 0.00 56 1009.9
20260506113026 64 360 5.2 11.3 0.00 0.00 0.00 56 1009.3
20260506112824 65 360 3.5 13.0 0.00 0.00 0.00 56 1009.9
20260506112309 65 360 4.3 13.0 0.00 0.00 0.00 56 1009.9
20260506111813 64 360 6.1 14.8 0.00 0.00 0.00 57 1009.9
20260506111542 64 248 7.8 14.8 0.00 0.00 0.00 57 1009.2
20260506111342 64 240 7.8 13.9 0.00 0.00 0.00 57 1009.8
20260506110825 64 220 4.3 14.8 0.00 0.00 0.00 57 1009.8
20260506110310 64 360 5.2 14.8 0.00 0.00 0.00 57 1009.8
20260506110024 64 360 4.3 13.0 0.00 0.00 0.00 57 1009.1
20260506105820 64 360 7.0 13.0 0.00 0.00 0.00 57 1009.7
20260506105325 64 360 7.0 12.2 0.00 0.00 0.00 57 1009.8
20260506104810 64 360 7.0 12.2 0.00 0.00 0.00 57 1009.7
20260506104546 64 360 5.2 11.3 0.00 0.00 0.00 57 1009.2
20260506104314 64 360 4.3 11.3 0.00 0.00 0.00 57 1009.8
20260506103825 64 360 5.2 13.0 0.00 0.00 0.00 57 1009.7
20260506103331 64 360 7.0 13.0 0.00 0.00 0.00 57 1009.8
20260506103044 64 233 5.2 14.8 0.00 0.00 0.00 57 1009.1
20260506102815 64 360 6.1 16.5 0.00 0.00 0.00 57 1009.6
20260506102326 64 360 7.8 16.5 0.00 0.00 0.00 57 1009.7
20260506101811 64 211 6.1 13.9 0.00 0.00 0.00 57 1009.7
20260506101557 64 360 4.3 13.9 0.00 0.00 0.00 57 1009.1
20260506101314 64 252 5.2 13.9 0.00 0.00 0.00 57 1009.7
20260506100843 64 360 6.1 12.2 0.00 0.00 0.00 57 1009.6
20260506100324 64 360 4.3 13.0 0.00 0.00 0.00 56 1009.6
20260506100024 64 360 6.1 13.0 0.00 0.00 0.00 56 1009.2
20260506095832 65 360 6.1 12.2 0.00 0.00 0.00 56 1009.7
20260506095317 65 360 3.5 12.2 0.00 0.00 0.00 56 1009.8
20260506094820 65 261 4.3 11.3 0.00 0.00 0.00 56 1009.7
20260506094537 64 360 4.3 17.4 0.00 0.00 0.00 56 1009.2
20260506094324 65 360 5.2 17.4 0.00 0.00 0.00 56 1009.8
20260506093836 65 360 6.1 12.2 0.00 0.00 0.00 56 1009.8
20260506093320 65 360 6.1 13.0 0.00 0.00 0.00 56 1009.8
20260506093040 65 360 3.5 13.0 0.00 0.00 0.00 56 1009.4
20260506092830 65 360 6.1 13.0 0.00 0.00 0.00 56 1009.9
20260506092315 65 360 5.2 10.4 0.00 0.00 0.00 55 1009.9
20260506091820 65 254 4.3 13.9 0.00 0.00 0.00 55 1009.8
20260506091548 65 360 3.5 13.9 0.00 0.00 0.00 55 1009.2
20260506091324 65 360 3.5 13.9 0.00 0.00 0.00 55 1009.8
20260506090835 66 241 2.6 14.8 0.00 0.00 0.00 55 1009.8
20260506090320 66 360 7.0 14.8 0.00 0.00 0.00 55 1009.8
20260506090052 65 360 5.2 10.4 0.00 0.00 0.00 55 1009.3
20260506085823 66 360 3.5 10.4 0.00 0.00 0.00 54 1009.9
20260506085335 66 205 5.2 13.0 0.00 0.00 0.00 54 1009.9
20260506084820 66 360 6.1 13.0 0.00 0.00 0.00 54 1009.9
20260506084506 66 360 3.5 12.2 0.00 0.00 0.00 54 1009.4
20260506084324 66 360 4.3 12.2 0.00 0.00 0.00 54 1010.0
20260506083812 66 360 6.1 11.3 0.00 0.00 0.00 55 1010.0
20260506083317 66 360 4.3 10.4 0.00 0.00 0.00 55 1010.0
20260506083020 65 251 4.3 10.4 0.00 0.00 0.00 55 1009.6
20260506082844 66 360 3.5 10.4 0.00 0.00 0.00 55 1010.0
20260506082312 66 360 7.0 13.9 0.00 0.00 0.00 55 1010.0
20260506081815 66 236 4.3 13.9 0.00 0.00 0.00 55 1010.0
20260506081614 65 232 5.2 13.9 0.00 0.00 0.00 55 1009.6
20260506081314 66 360 5.2 10.4 0.00 0.00 0.00 55 1010.1
20260506080817 66 360 2.6 10.4 0.00 0.00 0.00 55 1010.1
20260506080345 66 360 5.2 10.4 0.00 0.00 0.00 55 1010.2
20260506073341 66 360 4.3 12.2 0.00 0.00 0.00 54 1010.2
20260506073041 66 229 4.3 12.2 0.00 0.00 0.00 54 1009.7
20260506072830 66 360 5.2 11.3 0.00 0.00 0.00 54 1010.3
20260506072318 66 360 5.2 11.3 0.00 0.00 0.00 54 1010.3
20260506071822 67 250 3.5 11.3 0.00 0.00 0.00 54 1010.3
20260506071545 66 360 6.1 11.3 0.00 0.00 0.00 54 1009.8
20260506071331 67 237 6.1 10.4 0.00 0.00 0.00 53 1010.2
20260506070815 67 360 3.5 10.4 0.00 0.00 0.00 53 1010.4
20260506070318 67 360 3.5 10.4 0.00 0.00 0.00 53 1010.3
20260506062348 68 360 6.1 13.9 0.00 0.00 0.00 51 1010.6
20260506061810 68 360 6.1 13.9 0.00 0.00 0.00 51 1010.6
20260506061523 67 360 4.3 13.9 0.00 0.00 0.00 51 1010.1
20260506061321 68 360 4.3 13.9 0.00 0.00 0.00 51 1010.5
20260506060824 68 360 5.2 14.8 0.00 0.00 0.00 51 1010.6
20260506060335 67 244 6.1 14.8 0.00 0.00 0.00 51 1010.6
20260506050835 67 205 5.2 10.4 0.00 0.00 0.00 48 1011.0
20260506050346 67 360 4.3 10.4 0.00 0.00 0.00 48 1011.0
20260506044829 67 360 3.5 11.3 0.00 0.00 0.00 48 1011.0
20260506044542 67 234 4.3 11.3 0.00 0.00 0.00 48 1010.5
20260506044333 67 246 3.5 11.3 0.00 0.00 0.00 48 1010.9
20260506043817 67 360 4.3 7.8 0.00 0.00 0.00 48 1011.1
20260506043344 67 240 2.6 9.6 0.00 0.00 0.00 48 1011.1
20260506043051 67 360 2.6 10.4 0.00 0.00 0.00 48 1010.6
20260506042855 67 360 3.5 10.4 0.00 0.00 0.00 48 1011.0
20260506042319 67 252 4.3 10.4 0.00 0.00 0.00 48 1011.0
20260506041824 67 360 3.5 11.3 0.00 0.00 0.00 47 1011.0
20260506041558 67 360 2.6 11.3 0.00 0.00 0.00 47 1010.6
20260506041334 68 360 3.5 11.3 0.00 0.00 0.00 47 1011.0
20260506040818 68 360 4.3 8.7 0.00 0.00 0.00 47 1011.0
20260506040322 68 240 2.6 7.0 0.00 0.00 0.00 47 1011.1
20260506040029 67 360 2.6 10.4 0.00 0.00 0.00 46 1010.5
20260506035810 68 241 2.6 10.4 0.00 0.00 0.00 46 1011.0
20260506035320 68 360 3.5 10.4 0.00 0.00 0.00 46 1010.9
20260506034824 68 360 2.6 11.3 0.00 0.00 0.00 46 1011.1
20260506034614 68 360 3.5 11.3 0.00 0.00 0.00 46 1010.4
20260506034352 68 360 3.5 11.3 0.00 0.00 0.00 45 1011.0
20260506033819 69 360 3.5 9.6 0.00 0.00 0.00 45 1010.8
20260506033323 69 360 4.3 8.7 0.00 0.00 0.00 44 1010.9
20260506033036 68 360 2.6 8.7 0.00 0.00 0.00 44 1010.4
20260506032832 69 360 4.3 8.7 0.00 0.00 0.00 44 1010.8
20260506032337 69 360 4.3 11.3 0.00 0.00 0.00 44 1010.8
20260506031820 69 360 5.2 11.3 0.00 0.00 0.00 43 1010.8
20260506031516 69 240 2.6 13.9 0.00 0.00 0.00 43 1010.3
20260506031329 70 360 3.5 13.9 0.00 0.00 0.00 43 1010.8
20260506030814 70 360 4.3 12.2 0.00 0.00 0.00 42 1010.9
20260506030345 70 360 4.3 8.7 0.00 0.00 0.00 42 1010.9
20260506030009 70 252 3.5 8.7 0.00 0.00 0.00 41 1010.4
20260506025827 70 360 5.2 10.4 0.00 0.00 0.00 41 1010.8
20260506025312 70 360 3.5 12.2 0.00 0.00 0.00 41 1010.9
20260506024817 70 360 5.2 12.2 0.00 0.00 0.00 41 1010.9
20260506024524 70 360 3.5 10.4 0.00 0.00 0.00 40 1010.4
20260506024327 71 360 4.3 10.4 0.00 0.00 0.00 40 1010.9
20260506023812 71 261 5.2 10.4 0.00 0.00 0.00 40 1010.9
20260506023317 71 360 6.1 9.6 0.00 0.00 0.00 39 1010.9
20260506023100 70 360 2.6 9.6 0.00 0.00 0.00 39 1010.4
20260506022847 71 254 3.5 8.7 0.00 0.00 0.00 39 1011.0
20260506022310 71 360 3.5 9.6 0.00 0.00 0.00 38 1010.9
20260506021835 71 360 3.5 9.6 0.00 0.00 0.00 38 1010.9
20260506021501 71 360 3.5 9.6 0.00 0.00 0.00 37 1010.5
20260506021321 72 360 3.5 9.6 0.00 0.00 0.00 37 1010.7
20260506020826 72 360 5.2 7.8 0.00 0.00 0.00 37 1010.8
20260506020338 72 360 4.3 10.4 0.00 0.00 0.00 37 1010.8
20260506020052 71 360 2.6 10.4 0.00 0.00 0.00 36 1010.4
20260506015819 72 360 4.3 10.4 0.00 0.00 0.00 36 1010.7
20260506015350 72 360 2.6 10.4 0.00 0.00 0.00 36 1010.7
20260506014813 72 360 3.5 8.7 0.00 0.00 0.00 35 1010.6
20260506014545 72 252 4.3 10.4 0.00 0.00 0.00 35 1010.1
20260506014317 73 254 5.2 10.4 0.00 0.00 0.00 35 1010.6
20260506013828 73 360 6.1 10.4 0.00 0.00 0.00 35 1010.5
20260506013312 73 360 2.6 12.2 0.00 0.00 0.00 34 1010.6
20260506013059 73 252 4.3 12.2 0.00 0.00 0.00 34 1010.1
20260506012816 73 360 5.2 8.7 0.00 0.00 0.00 34 1010.4
20260506012320 73 360 3.5 10.4 0.00 0.00 0.00 33 1010.4
20260506011831 73 360 5.2 12.2 0.00 0.00 0.00 33 1010.4
20260506011501 73 360 4.3 12.2 0.00 0.00 0.00 33 1009.9
20260506011314 74 360 6.1 12.2 0.00 0.00 0.00 33 1010.3
20260506010819 74 360 4.3 11.3 0.00 0.00 0.00 32 1010.3
20260506010330 74 248 4.3 10.4 0.00 0.00 0.00 32 1010.3
20260506010016 74 360 5.2 13.9 0.00 0.00 0.00 32 1009.9
20260506005814 74 242 3.5 13.9 0.00 0.00 0.00 32 1010.4
20260506005337 74 251 7.0 13.9 0.00 0.00 0.00 31 1010.3
20260506004827 75 360 6.1 18.2 0.00 0.00 0.00 31 1010.1
20260506004518 74 360 6.1 18.2 0.00 0.00 0.00 31 1009.7
20260506004333 75 360 4.3 13.9 0.00 0.00 0.00 31 1010.1
20260506003817 75 228 6.1 14.8 0.00 0.00 0.00 30 1010.0
20260506003328 75 360 7.0 14.8 0.00 0.00 0.00 30 1010.0
20260506003003 75 360 4.3 11.3 0.00 0.00 0.00 30 1009.6
20260506002811 75 360 5.2 11.3 0.00 0.00 0.00 30 1010.0
20260506002316 75 360 6.1 11.3 0.00 0.00 0.00 30 1010.0
20260506001829 76 360 6.1 13.9 0.00 0.00 0.00 29 1010.0
20260506001505 75 360 6.1 13.9 0.00 0.00 0.00 29 1009.4
20260506001312 76 360 6.1 13.9 0.00 0.00 0.00 29 1009.8
20260506000817 76 360 8.7 14.8 0.00 0.00 0.00 29 1009.8
20260506000323 76 360 7.0 14.8 0.00 0.00 0.00 29 1009.8
20260506000025 76 360 6.1 13.0 0.00 0.00 0.00 29 1009.3
20260505235831 77 360 6.1 13.0 0.00 0.00 0.00 28 1009.7
20260505235316 77 360 5.2 13.0 0.00 0.00 0.00 27 1009.6
20260505234820 77 360 3.5 11.3 0.00 0.00 0.00 26 1009.6
20260505234555 77 360 3.5 11.3 0.00 0.00 0.00 26 1009.1
20260505234331 77 360 4.3 11.3 0.00 0.00 0.00 25 1009.6
20260505233816 78 360 6.1 16.5 0.00 0.00 0.00 25 1009.6
20260505233320 78 360 7.8 16.5 0.00 0.00 0.00 25 1009.5
20260505233049 77 360 4.3 16.5 0.00 0.00 0.00 25 1009.0
20260505232851 78 360 3.5 10.4 0.00 0.00 0.00 25 1009.4
20260505232315 78 360 5.2 13.0 0.00 0.00 0.00 25 1009.6
20260505231820 78 360 7.8 13.0 0.00 0.00 0.00 25 1009.6
20260505231542 78 360 7.8 13.0 0.00 0.00 0.00 25 1009.1
20260505231328 78 360 6.1 12.2 0.00 0.00 0.00 25 1009.4
20260505230813 79 360 4.3 12.2 0.00 0.00 0.00 24 1009.6
20260505230337 79 360 4.3 11.3 0.00 0.00 0.00 24 1009.4
20260505230030 78 360 4.3 12.2 0.00 0.00 0.00 24 1008.9
20260505225826 79 360 7.0 12.2 0.00 0.00 0.00 24 1009.4
20260505225312 79 360 6.1 13.9 0.00 0.00 0.00 24 1009.4
20260505224814 79 360 7.0 13.9 0.00 0.00 0.00 24 1009.4
20260505224540 79 250 7.8 13.9 0.00 0.00 0.00 23 1008.9
20260505224345 79 360 7.8 18.2 0.00 0.00 0.00 23 1009.4
20260505223828 79 360 7.8 19.1 0.00 0.00 0.00 24 1009.4
20260505223312 80 360 10.4 19.1 0.00 0.00 0.00 24 1009.4
20260505223031 79 360 3.5 10.4 0.00 0.00 0.00 25 1008.9
20260505222817 79 360 4.3 10.4 0.00 0.00 0.00 24 1009.4
20260505222328 79 360 6.1 17.4 0.00 0.00 0.00 24 1009.5
20260505221834 79 360 7.8 17.4 0.00 0.00 0.00 24 1009.5
20260505221516 79 360 7.0 18.2 0.00 0.00 0.00 24 1009.1
20260505221322 80 360 7.8 18.2 0.00 0.00 0.00 23 1009.5
20260505220856 80 134 10.4 18.2 0.00 0.00 0.00 23 1009.5
20260505220318 80 360 8.7 19.1 0.00 0.00 0.00 22 1009.4
20260505220013 80 360 8.7 19.1 0.00 0.00 0.00 22 1008.9
20260505215821 81 160 11.3 19.1 0.00 0.00 0.00 22 1009.5
20260505215324 81 360 7.0 20.0 0.00 0.00 0.00 22 1009.3
20260505214835 81 360 10.4 20.0 0.00 0.00 0.00 22 1009.3
20260505214523 80 360 7.0 14.8 0.00 0.00 0.00 23 1008.8
20260505214320 81 360 8.7 14.8 0.00 0.00 0.00 23 1009.2
20260505213825 81 178 5.2 19.1 0.00 0.00 0.00 23 1009.4
20260505213309 81 182 8.7 16.5 0.00 0.00 0.00 22 1009.4
20260505213033 80 360 7.8 21.7 0.00 0.00 0.00 22 1008.9
20260505212815 81 360 9.6 21.7 0.00 0.00 0.00 22 1009.4
20260505212325 81 229 7.8 15.6 0.00 0.00 0.00 22 1009.3
20260505211810 82 229 5.2 15.6 0.00 0.00 0.00 21 1009.3
20260505211554 81 360 5.2 15.6 0.00 0.00 0.00 22 1008.8
20260505211313 81 172 7.8 15.6 0.00 0.00 0.00 22 1009.4
20260505210824 81 360 7.0 16.5 0.00 0.00 0.00 21 1009.3
20260505210309 81 360 7.8 18.2 0.00 0.00 0.00 21 1009.3
20260505210053 81 360 7.0 18.2 0.00 0.00 0.00 21 1008.8
20260505205814 81 360 10.4 18.2 0.00 0.00 0.00 21 1009.2
20260505205346 81 360 7.8 16.5 0.00 0.00 0.00 21 1009.3
20260505204830 81 211 6.1 17.4 0.00 0.00 0.00 21 1009.2
20260505204526 81 360 7.8 17.4 0.00 0.00 0.00 21 1008.7
20260505204312 81 360 8.7 17.4 0.00 0.00 0.00 21 1009.2
20260505203328 81 360 8.7 19.1 0.00 0.00 0.00 20 1009.2
20260505203041 81 360 8.7 19.1 0.00 0.00 0.00 20 1008.9
20260505202837 81 360 7.8 19.1 0.00 0.00 0.00 20 1009.2
20260505202320 82 360 7.8 20.0 0.00 0.00 0.00 20 1009.4
20260505201824 82 229 10.4 20.0 0.00 0.00 0.00 19 1009.4
20260505201524 81 233 7.8 20.0 0.00 0.00 0.00 19 1009.0
20260505201334 82 360 7.0 18.2 0.00 0.00 0.00 19 1009.5
20260505200818 82 360 7.0 17.4 0.00 0.00 0.00 19 1009.3
20260505200322 82 360 7.8 21.7 0.00 0.00 0.00 19 1009.4
20260505200036 81 360 9.6 21.7 0.00 0.00 0.00 19 1009.0
20260505195810 82 223 5.2 20.0 0.00 0.00 0.00 19 1009.6
20260505195321 82 360 9.6 20.0 0.00 0.00 0.00 20 1009.4
20260505194842 82 216 9.6 20.9 0.00 0.00 0.00 19 1009.4
20260505194535 81 198 10.4 20.9 0.00 0.00 0.00 19 1009.0
20260505194310 82 360 7.8 20.9 0.00 0.00 0.00 19 1009.5
20260505193837 82 360 10.4 20.0 0.00 0.00 0.00 19 1009.4
20260505193321 82 205 7.8 19.1 0.00 0.00 0.00 19 1009.6
20260505193036 81 360 7.8 19.1 0.00 0.00 0.00 19 1009.1